Weather History for South Bend, IN

Change the Weather History Date:

Monday, March 10, 2014

  Actual Average Record
Temperature  
Mean Temperature 44 °F 35 °F  
Max Temperature 50 °F 44 °F 67 °F (1902)
Min Temperature 37 °F 27 °F 5 °F (1944)
Degree Days  
Heating Degree Days 21 30  
Month to date heating degree days 423 315  
Since 1 July heating degree days 5606 5004  
Cooling Degree Days 0 0  
Month to date cooling degree days 0 0  
Year to date cooling degree days 0 0  
Moisture  
Dew Point 33 °F    
Average Humidity 74    
Maximum Humidity 92    
Minimum Humidity 56    
Precipitation  
Precipitation T in 0.07 in 1.41 in (2009)
Month to date precipitation 0.47 0.77  
Year to date precipitation 6.41 5.01  
Sea Level Pressure  
Sea Level Pressure 29.74 in    
Wind  
Wind Speed 13 mph (SW)    
Max Wind Speed 23 mph    
Max Gust Speed 31 mph    
Visibility 9 miles    
Events Rain    
T = Trace of Precipitation, MM = Missing Value Source: NWS Daily Summary

Daily Weather History Graph

Daily Weather History Graph

Search for Another Location

Airport:

Trip Planner

Search our weather history database for the weather conditions in past years. The results will help you decide how hot, cold, wet, or windy it might be!

Date:

Astronomy

Mar. 10, 2014 Rise Set
Actual Time 8:05 AM EDT 7:46 PM EDT
Civil Twilight 7:37 AM EDT 8:13 PM EDT
Nautical Twilight 7:05 AM EDT 8:46 PM EDT
Astronomical Twilight 6:33 AM EDT 9:18 PM EDT
Moon 2:26 PM EDT (3/10) 4:20 AM EDT (3/10)
Length of Visible Light 12h 36m
Length of Day
11h 40m
Waxing Gibbous, 70% of the Moon is Illuminated
Mar 10
Waxing Gibbous
Mar 16
Full
Mar 23
Last Quarter
Mar 30
New
Apr 7
First Quarter

Hourly Weather History & Observations

Time (EDT) Temp. Windchill Dew Point Humidity Pressure Visibility Wind Dir Wind Speed Gust Speed Precip Events Conditions
12:54 AM 37.9 °F 29.6 °F 30.0 °F 73% 29.86 in 8.0 mi SW 13.8 mph - N/A   Clear
1:54 AM 37.9 °F 28.2 °F 30.0 °F 73% 29.83 in 7.0 mi SW 18.4 mph 25.3 mph N/A   Scattered Clouds
2:54 AM 37.9 °F 27.9 °F 30.0 °F 73% 29.81 in 7.0 mi SW 19.6 mph 25.3 mph N/A   Clear
3:54 AM 37.9 °F 28.5 °F 30.0 °F 73% 29.78 in 7.0 mi SW 17.3 mph 24.2 mph N/A   Partly Cloudy
5:54 AM 37.9 °F 29.6 °F 30.9 °F 76% 29.76 in 8.0 mi WSW 13.8 mph - 0.00 in Rain Light Rain
6:54 AM 39.0 °F 31.8 °F 30.0 °F 70% 29.76 in 9.0 mi SW 11.5 mph - 0.00 in   Overcast
8:54 AM 39.0 °F 32.3 °F 30.9 °F 73% 29.76 in 10.0 mi SW 10.4 mph - N/A   Scattered Clouds
9:54 AM 39.9 °F 32.9 °F 30.9 °F 70% 29.76 in 10.0 mi SW 11.5 mph - N/A   Scattered Clouds
10:54 AM 42.1 °F 36.1 °F 30.9 °F 65% 29.75 in 10.0 mi SW 10.4 mph 19.6 mph N/A   Clear
11:54 AM 44.1 °F 37.7 °F 32.0 °F 63% 29.75 in 10.0 mi SW 12.7 mph - N/A   Clear
12:54 PM 45.0 °F 38.5 °F 32.0 °F 60% 29.73 in 10.0 mi SW 13.8 mph - N/A   Clear
1:54 PM 46.9 °F - 33.1 °F 59% 29.71 in 10.0 mi SW 16.1 mph 20.7 mph N/A   Clear
2:54 PM 48.0 °F - 33.1 °F 56% 29.69 in 10.0 mi SW 17.3 mph 25.3 mph N/A   Clear
4:54 PM 50.0 °F - 35.1 °F 57% 29.68 in 10.0 mi WSW 12.7 mph 20.7 mph N/A   Clear
5:54 PM 48.9 °F - 36.0 °F 61% 29.67 in 10.0 mi SW 16.1 mph 24.2 mph N/A   Clear
6:54 PM 48.0 °F - 37.9 °F 68% 29.67 in 10.0 mi WSW 17.3 mph - N/A   Clear
7:54 PM 46.0 °F 39.9 °F 37.9 °F 73% 29.68 in 10.0 mi WSW 13.8 mph - N/A   Clear
8:54 PM 45.0 °F 39.7 °F 37.9 °F 76% 29.70 in 10.0 mi WSW 10.4 mph - N/A   Clear
9:54 PM 43.0 °F 38.8 °F 37.0 °F 80% 29.71 in 9.0 mi SW 6.9 mph - N/A   Clear
10:54 PM 42.1 °F 39.2 °F 37.9 °F 85% 29.70 in 7.0 mi SW 4.6 mph - N/A   Clear
11:54 PM 39.9 °F 36.7 °F 37.0 °F 89% 29.71 in 5.0 mi SW 4.6 mph - N/A   Clear